Date,TemperatureHighF,TemperatureAvgF,TemperatureLowF,DewpointHighF,DewpointAvgF,DewpointLowF,HumidityHigh,HumidityAvg,HumidityLow,PressureMaxIn,PressureMinIn,WindSpeedMaxMPH,WindSpeedAvgMPH,GustSpeedMaxMPH,PrecipitationSumIn
2013-6-1,84,74,66,71,65,59,87,74,56,30.01,29.90,16,7,26,0.00
2013-6-2,79,72,68,71,66,60,91,82,70,30.01,29.94,16,10,31,0.00
2013-6-3,81,72,68,68,63,59,88,73,61,30.02,29.92,16,10,30,0.00
2013-6-4,82,72,67,68,63,58,87,74,56,29.99,29.88,15,8,30,0.00
2013-6-5,78,70,65,69,64,58,90,82,68,29.99,29.90,16,9,30,0.01
2013-6-6,78,70,65,68,63,57,92,80,66,29.99,29.88,16,8,30,0.01
2013-6-7,77,69,63,67,63,60,93,81,66,29.99,29.88,16,9,28,0.00
2013-6-8,79,71,65,67,63,60,90,76,63,30.00,29.91,14,8,29,0.00
2013-6-9,79,72,67,69,63,60,86,76,64,30.02,29.93,15,8,25,0.00
2013-6-10,80,71,66,68,64,60,88,78,64,30.00,29.92,14,8,26,0.00
2013-6-11,83,73,63,67,64,60,90,73,56,29.96,29.89,16,5,25,0.00
2013-6-12,81,72,66,71,63,58,88,74,56,30.01,29.92,15,7,26,0.21
2013-6-13,82,72,67,69,64,60,91,78,57,30.02,29.96,16,9,30,0.10
2013-6-14,79,71,67,67,63,58,90,75,62,30.01,29.91,18,10,30,0.07
2013-6-15,80,72,67,69,62,56,85,72,61,29.95,29.85,14,8,28,0.00
2013-6-16,82,73,66,67,62,55,85,69,50,29.96,29.86,14,8,25,0.00
2013-6-17,80,72,67,70,63,59,87,75,64,30.02,29.90,14,9,30,0.01
2013-6-18,84,73,65,68,63,60,88,72,53,29.99,29.91,16,8,31,0.00
2013-6-19,82,73,67,66,62,58,79,68,55,29.99,29.92,13,7,26,0.00
2013-6-20,82,72,64,68,63,59,89,75,60,30.00,29.90,12,5,21,0.03
2013-6-21,82,72,67,70,64,61,89,78,62,29.99,29.90,14,8,28,0.01
2013-6-22,81,71,66,68,64,60,90,77,60,30.03,29.92,20,10,31,0.02
2013-6-23,82,73,67,69,64,60,90,75,63,30.04,29.96,14,9,26,0.01
2013-6-24,82,71,66,66,63,56,93,76,55,30.03,29.95,14,8,25,0.05
2013-6-25,79,70,61,71,65,59,94,85,72,30.01,29.93,12,4,20,0.03
2013-6-26,80,72,64,69,64,61,91,79,66,30.00,29.91,16,7,30,0.01
2013-6-27,82,72,64,66,61,57,87,70,55,29.96,29.87,14,7,26,0.00
2013-6-28,83,72,63,69,63,59,89,75,56,29.94,29.86,14,6,25,0.00
2013-6-29,77,70,65,70,63,53,91,79,63,29.96,29.87,12,6,20,0.26
2013-6-30,81,73,63,68,64,60,91,73,59,29.97,29.88,14,7,26,0.00